Погода в Починоке

Погода в Починоке : погода сейчас, прогноз погоды и архив. Всё, что Вы хотите узнать о погоде в Починоке!

Поиск расширенной информации на нашем сайте:

Другие новости

Новости СМИ2

Главная страница сайта

Новости сайта

03.07.2017

Напоминаем, что на нашем специализированном сайте Метеоцентр.Азия вы можете получить высокодетализированные автоматические прогнозы погоды по пунктам России, СНГ и мира в авиационном формате (включающие направление и скорость ветра, видимость, явления погоды, количество и форму облачности, нижнюю и верхнюю границу облачности).


Погода в Починоке - сегодня

Время (UTC), дата Ветер
(°,м/с) 
Видим.   Явления Облачность Т
(°С)
Тd
(°С)
f(%) Тe
(°С)
Pmin
(гПа)
dP
(гПа)
Po
(мм)
O2
(г/м3)
Тmin Tmax R s Состояние
почвы
12 20.10.17 020 (С) 20000 м    8/6 1000 м верхняя 
[Cu Sc|Ci fib]
+9.1 -2.7 43 +9  1023.1  -1.1  749  292           
15 20.10.17 150 (ЮВ) 20000 м    9/6 1000 м средняя, верхняя 
[Sc|Ac trans|Ci fib]
+6.6 -0.9 59 +8  1022.9  -0.3  749  295           
18 20.10.17 010 (С) 10 км    9/9 1000 м 
[Sc]
+5.6 +0.4 69 +6  1023.2  0.1  749  296    +10.6       
21 20.10.17 тихо ()   10 км    9/9 600 м 
[Sc]
+3.4 +1.2 85 +3  1023.4  0.1  749  298           
00 21.10.17 080 (В) 10 км    10/10 600 м 
[Sc]
+3.3 +0.8 84 +4  1022.9  -0.5  748  298           
03 21.10.17 050 (СВ) 20000 м    3/3 1000 м 
[Sc]
+0.6 -0.4 93 +1  1022.9  -0.2  748  301  +0.6         
06 21.10.17 070 (В) 20000 м    4/0 средняя, верхняя 
[Ac trans|Cc]
+0.4 -0.5 94 +1  1022.7  -0.2  748  301  -0.9         
09 21.10.17 070 (В) 20000 м    3/0 средняя 
[Ac trans]
+6.1 -1.3 59 +7  1021.9  -0.3  748  295           
12 21.10.17 тихо ()   20000 м    6/4 600 м средняя, верхняя 
[Sc|Ac trans|Ci fib]
+6.3 -3.9 48 +6  1019.9  -1.9  746  294           
15 21.10.17 040 (СВ) 10 км    9/6 1000 м средняя, верхняя 
[Sc|Ac trans|Ci fib]
+3.4 -3 63 +4  1019.7  -0.4  746  297           
18 21.10.17 030 (СВ) 10 км    8/8 600 м 
[Sc]
+0.9 -0.8 88 1020.6  0.6  746  300    +8.1       
21 21.10.17 030 (СВ) 10 км    4/3 600 м средняя 
[Sc|Ac trans]
-0.8 -1.5 95 -2  1021.1  0.3  747  302           
00 22.10.17 030 (СВ) 10 км    8/8 600 м 
[Sc]
-0.8 -1.7 94 -3  1021.1  0.1  747  302           
03 22.10.17 020 (С) 10 км    9/9 600 м 
[Sc]
-0.9 -2.1 92 -2  1021.6  0.5  747  302  -1         
06 22.10.17 020 (С) 20000 м    8/0 средняя 
[Ac trans]
-0.6 -3 84 -1  1022.3  0.6  747  302  -1         
09 22.10.17 290 (З) 20000 м    4/0 средняя 
[Ac trans]
+2.5 -6.3 52 +3  1022.3  0.3  748  299           
12 22.10.17 280 (З) 20000 м    3/0 средняя 
[Ac trans]
+4.1 -7 44 +4  1021.2  -0.9  747  297           
15 22.10.17 260 (З) 20000 м    ясно 
+0.2 -6.4 61 +1  1020.9  -0.7  746  301           
18 22.10.17 230 (ЮЗ) 20000 м    ясно 
-3.5 -5.6 85 -3  1021.4  0.2  747  305    +4.4       
21 22.10.17 230 (ЮЗ) 10 км    ясно 
-4.1 -4.7 96 -4  1021.5  0.1  747  306           
00 23.10.17 тихо ()   10 км    3/0 верхняя 
[Ci fib]
-5.8 -6.2 97 -6  1021.5  -0.2  747  308           
03 23.10.17 тихо ()   10 км    9/0 средняя 
[Ac trans]
-5.5 -5.9 97 -6  1021.9  0.4  747  308  -6.4         
06 23.10.17 тихо ()   20000 м    9/0 средняя, верхняя 
[Ac trans|Ci fib]
-3.3 -3.7 97 -3  1022  0.3  747  305  -6.4         
09 23.10.17 060 (СВ) 10 км    6/0 верхняя 
[Ci fib]
+2.7 -2.9 67 +3  1022.3  0.8  748  299           
12 23.10.17 060 (СВ) 20000 м    8/1 1000 м верхняя 
[Sc|Ci fib]
+3.9 -5.9 49 +3  1022.5  0.3  748  298           
Время (UTC), дата Ветер
(°,м/с) 
Видим.   Явления Облачность Т
(°С)
Тd
(°С)
f(%) Тe
(°С)
Pmin
(гПа)
dP
(гПа)
Po
(мм)
O2
(г/м3)
Тmin Tmax R s Состояние
почвы

Для получения пояснительной информации подведите курсор к названию столбца.

ПОГОДА в Починоке - архив

Всё, что Вы хотите узнать о погоде в Починоке - удобно и подробно!

Выберите нужную дату (начиная с 1 января 2015* года) и нажмите кнопку "Найти".
Будут отображены архивные сводки погоды по пункту Починок, начиная с указанной даты.


Отображать данные в формате CSV (для использования в таблицах Excel)


Внимание! Наш архив погоды предназначен исключительно для личного некоммерческого использования в познавательных целях. Если Вам необходимы официальные справки о состоянии погоды (для производственных, юридических, коммерческих и т.п. целей), обращайтесь в органы Росгидромета.

*Примечание: данная дата относится к архиву по метеостанциям СССР (Россия, СНГ, Балтия).
Архив по метеостанциям Зарубежной Европы и Азии (кроме Китая) хранится 10 дней, по другим регионам земного шара (Китай, Африка, Америка, Австралия, Океания) - 1 день.

Починок - район местоположения метеостанции


Название, широта, долгота, высота метеостанции:
Починок 54.4°ш. 32.4°д. 210 м над ур. моря [Российская Федерация]

Дополнительная информация

В oтличие oт бoльшинства пoгoдных сайтoв мы публикуем пoдрoбную метеoинфoрмацию в детальнoм прoфессиoнальнoм фoрмате.

Характеристики температуры и влажнoсти вoздуха измеряются на высoте 2 м в тени вдали oт зданий и деревьев.
Скoрoсть ветра измеряется на высoте 10 м (на урoвне рoста челoвека скoрoсть ветра ниже в 1.5-2 раза). Если метеoстанция нахoдится в гoрoде или в лесу, тo скoрoсть ветра занижена на 2-4 м/с пo сравнению с oткрытым местoм. Скoрoсть ветра над акватoриями крупных рек и oзёр, а также на вершинах хoлмoв на 2-5 м/с выше, чем в oбычных услoвиях.
Атмoсфернoе давление в разных тoчках местнoсти мoжет значительнo oтличаться oт давления на метеoстанции, в зависимoсти oт услoвий рельефа (при пoдъёме на 10 м давление пoнижается примернo на 1 мм рт.ст.).